This demonstration page uses our WeatherBlox Daily Observations layout. Learn more.

Left ArrowRight Arrow

34.74481, -87.66753

Hourly Observations for January 29, 2020

Temp ( °F °C ) Dew Point ( °F °C ) Humidity (%) Winds ( mph kmh ) Pressure ( in mb ) Visibility ( mi km ) Precip ( " mm )
12:53 am 00:53 Mostly Clear 47 8.3 38 3.3 71 71 ENE 3 6 30.00 1016 10 16 0.00 0.00
1:53 am 01:53 Cloudy 47 8.3 38 3.3 71 71 E 3 6 30.00 1016 10 16 0.00 0.00
2:53 am 02:53 Cloudy 47 8.3 38 3.3 71 71 ENE 7 11 29.99 1016 10 16 0.00 0.00
3:53 am 03:53 Cloudy 46 7.8 38 3.3 73 73 NE 7 11 29.98 1015 10 16 0.00 0.00
4:53 am 04:53 Cloudy 45 7.2 38 3.3 77 77 Calm 29.99 1016 10 16 0.00 0.00
5:53 am 05:53 Cloudy 45 7.2 39 3.9 80 80 Calm 30.00 1016 10 16 0.00 0.00
6:53 am 06:53 Cloudy 44 6.7 39 3.9 83 83 ENE 5 7 30.01 1016 9 14 0.00 0.00
7:53 am 07:53 Mostly Cloudy 45 7.2 40 4.4 83 83 ENE 7 11 30.01 1016 9 14 0.01 0.25
8:53 am 08:53 Cloudy 47 8.3 41 5 80 80 E 5 7 30.01 1016 10 16 0.00 0.00
9:53 am 09:53 Cloudy 49 9.4 41 5 74 74 SE 6 9 30.02 1017 10 16 0.00 0.00
10:53 am 10:53 Cloudy 50 10 41 5 71 71 E 5 7 30.01 1016 10 16 0.00 0.00
11:53 am 11:53 Cloudy 51 10.6 40 4.4 66 66 ENE 6 9 30.00 1016 10 16 0.00 0.00
12:53 pm 12:53 Cloudy with Light Rain 52 11.1 42 5.6 69 69 Calm 29.99 1016 10 16 0.00 0.00
1:53 pm 13:53 Cloudy with Light Rain 51 10.6 42 5.6 71 71 ESE 3 6 29.99 1016 10 16 0.00 0.00
2:53 pm 14:53 Mostly Cloudy 52 11.1 42 5.6 69 69 E 7 11 29.98 1015 10 16 0.01 0.25
3:53 pm 15:53 Cloudy 53 11.7 42 5.6 66 66 E 8 13 29.99 1016 10 16 0.00 0.00
4:53 pm 16:53 Cloudy 51 10.6 42 5.6 71 71 E 6 9 30.01 1016 10 16 0.00 0.00
5:53 pm 17:53 Cloudy 50 10 42 5.6 74 74 Calm 30.02 1017 10 16 0.00 0.00
6:53 pm 18:53 Cloudy 50 10 42 5.6 74 74 Calm 30.04 1017 10 16 0.00 0.00
7:53 pm 19:53 Cloudy 48 8.9 43 6.1 83 83 Calm 30.04 1017 10 16 0.00 0.00
8:53 pm 20:53 Cloudy 48 8.9 43 6.1 83 83 Calm 30.06 1018 10 16 0.00 0.00
9:53 pm 21:53 Cloudy 47 8.3 42 5.6 83 83 Calm 30.07 1018 10 16 0.00 0.00
10:53 pm 22:53 Partly Cloudy 48 8.9 41 5 77 77 Calm 30.07 1018 10 16 0.00 0.00
11:53 pm 23:53 Cloudy 47 8.3 41 5 80 80 NNE 5 7 30.07 1018 10 16 0.00 0.00

Powered by AerisWeather